[[{"header":{"parameterUnit":"m.s-1","parameterCategory":1,"la1":30.2991,"la2":30.254,"lo1":-89.0895,"lo2":-89.0444,"dy":0.0017,"dx":0.0017,"nx":28,"ny":28,"refTime":"2026-02-18T03:00:00:Z","depth":0,"parameterNumber":2,"parameterNumberName":"U-component_of_WINDS"},"data":[0,0,0,0,0,0,0,0,0,0,0,0,0,0,0,0,0,0,0,0,0,0,0,0,0,0,0,0,0,0,0,0,0,0,0,0,0,0,0,0,0,0,0,0,0,0,0,0,0,0,0,0,0,0,0,0,0,0,-0.4174,-0.4174,0,-0.4138,-0.4137,-0.4137,-0.4067,-0.4066,-0.4064,-0.4063,-0.4026,-0.4026,-0.4026,0,0,0,0,0,0,0,0,0,0,0,0,0,-0.4184,-0.4184,-0.4174,-0.4174,-0.4173,-0.4138,-0.4137,-0.4137,-0.4067,-0.4066,-0.4064,-0.4063,-0.4025,-0.4026,-0.4026,0,0,0,0,0,0,0,0,0,0,0,0,0,-0.4167,-0.4185,-0.4174,-0.4135,-0.4131,-0.4138,-0.4137,-0.4136,-0.4068,-0.4066,-0.4064,-0.4062,-0.4025,-0.4026,-0.4026,-0.4069,0,0,-0.4027,-0.4027,0,0,0,0,0,0,0,0,-0.4168,-0.4167,-0.4141,-0.4137,-0.4133,-0.4105,-0.4127,-0.4114,-0.4068,-0.4092,-0.4063,-0.4061,-0.4054,-0.4052,-0.4049,-0.4067,-0.4066,-0.4027,-0.4028,-0.4028,-0.4028,0,0,0,0,0,0,0,-0.4169,-0.4168,-0.416,-0.4141,-0.4136,-0.4118,-0.4114,-0.4124,-0.4084,-0.4089,-0.4084,-0.4081,-0.4051,-0.4049,-0.4048,-0.4065,-0.4027,-0.4028,-0.4028,-0.4028,-0.4114,-0.4116,0,0,0,0,0,0,-0.4176,-0.4169,-0.4161,-0.4159,-0.4146,-0.412,-0.4115,-0.4116,-0.4084,-0.4077,-0.4083,-0.4078,-0.4049,-0.4047,-0.4046,-0.4091,-0.4028,-0.4028,-0.4028,-0.4112,-0.4115,-0.4117,0,0,0,0,0,0,-0.4177,-0.4176,-0.4162,-0.4163,-0.4159,-0.4122,-0.4124,-0.4116,-0.4114,-0.4079,-0.4072,-0.4088,-0.4048,-0.4046,-0.4063,-0.4089,-0.4028,-0.4029,-0.411,-0.4113,-0.4116,-0.4184,0,0,0,0,0,0,-0.4178,-0.4177,-0.4193,-0.4163,-0.416,-0.418,-0.4126,-0.4117,-0.4115,-0.4108,-0.4082,-0.4075,-0.4046,-0.4063,-0.4064,-0.4089,-0.4029,-0.4107,-0.4111,-0.4115,-0.418,-0.419,-0.4198,0,0,0,0,0,-0.4178,-0.4214,-0.4194,-0.4193,-0.4179,-0.4182,-0.418,-0.4145,-0.4117,-0.4132,-0.411,-0.4076,-0.4087,-0.4065,-0.4066,-0.4091,-0.4105,-0.411,-0.4114,-0.4175,-0.4188,-0.4198,0,0,0,0,0,0,-0.4248,-0.421,-0.4187,-0.4215,-0.4202,-0.417,-0.4188,-0.4159,-0.4154,-0.4148,-0.4106,-0.41,-0.4123,-0.4109,-0.4086,-0.413,-0.4091,-0.4096,-0.4137,-0.4148,-0.4157,-0.4159,-0.4029,0,0,0,0,0,-0.4267,-0.4272,-0.4239,-0.4267,-0.4261,-0.4227,-0.4227,-0.4201,-0.4186,-0.418,-0.4159,-0.4146,-0.4146,-0.4147,-0.4146,-0.4179,-0.417,-0.4196,-0.4206,-0.4213,-0.4217,-0.423,-0.4241,-0.4132,-0.4132,-0.4132,0,0,-0.4305,-0.4285,-0.4291,-0.428,-0.4267,-0.4273,-0.4222,-0.4232,-0.4235,-0.4182,-0.4196,-0.4181,-0.4163,-0.4188,-0.4198,-0.4177,-0.4246,-0.4219,-0.4226,-0.4225,-0.4236,-0.4246,-0.4256,-0.4135,-0.4135,-0.4134,0,0,-0.4377,-0.4364,-0.4384,-0.4372,-0.4353,-0.433,-0.4335,-0.4308,-0.4295,-0.4309,-0.4268,-0.4273,-0.4275,-0.4263,-0.4257,-0.4326,-0.4293,-0.4327,-0.4373,-0.4387,-0.4396,-0.4403,-0.4424,-0.4432,-0.4331,-0.4332,-0.4332,0,-0.4426,-0.4434,-0.4398,-0.4409,-0.4404,-0.4357,-0.4376,-0.4367,-0.4349,-0.4347,-0.4325,-0.4325,-0.431,-0.433,-0.4346,-0.4345,-0.4348,-0.4328,-0.4397,-0.4404,-0.4411,-0.443,-0.4439,-0.4335,-0.4335,-0.4335,-0.4334,0,-0.4494,-0.4501,-0.4519,-0.4502,-0.45,-0.4516,-0.4482,-0.4484,-0.4459,-0.4438,-0.4452,-0.4433,-0.4426,-0.443,-0.4406,-0.4446,-0.4433,-0.4405,-0.4364,-0.4425,-0.4443,-0.445,-0.4341,-0.434,-0.4338,-0.4337,0,0,-0.4606,-0.457,-0.4577,-0.4567,-0.4544,-0.4547,-0.4561,-0.4554,-0.4555,-0.4546,-0.4554,-0.4557,-0.453,-0.4524,-0.4499,-0.4512,-0.4563,-0.4481,-0.448,-0.4494,-0.4602,-0.4621,-0.463,-0.4543,-0.4544,-0.4545,-0.4603,0,-0.467,-0.469,-0.4658,-0.4685,-0.4688,-0.4644,-0.4655,-0.4642,-0.4623,-0.4623,-0.4603,-0.4604,-0.457,-0.4566,-0.4577,-0.4554,-0.4583,-0.455,-0.4548,-0.4548,-0.455,-0.464,-0.466,-0.4715,-0.461,-0.4611,-0.4612,0,-0.4746,-0.4739,-0.4766,-0.4739,-0.474,-0.4751,-0.474,-0.4742,-0.4726,-0.4711,-0.4705,-0.4675,-0.4685,-0.4648,-0.4661,-0.4639,-0.4637,-0.4626,-0.4627,-0.4622,-0.4581,-0.4634,-0.4732,-0.4739,-0.4623,-0.4622,-0.4621,0,-0.4821,-0.4818,-0.4833,-0.4828,-0.4798,-0.4806,-0.4794,-0.4776,-0.4773,-0.4765,-0.4762,-0.4756,-0.4752,-0.4747,-0.4716,-0.4692,-0.4731,-0.4692,-0.4717,-0.4717,-0.4724,-0.4723,-0.4818,-0.4729,-0.4729,-0.4729,-0.4728,0,-0.4893,-0.491,-0.4866,-0.4875,-0.4893,-0.4857,-0.4876,-0.4859,-0.4843,-0.4848,-0.4811,-0.4815,-0.4776,-0.4776,-0.4752,-0.4764,-0.4764,-0.475,-0.4743,-0.4752,-0.4753,-0.4747,-0.4741,-0.4731,-0.473,-0.473,-0.4729,0,-0.4977,-0.4949,-0.4962,-0.4933,-0.4926,-0.494,-0.4915,-0.4922,-0.4901,-0.4907,-0.4907,-0.4874,-0.4872,-0.4842,-0.4834,-0.4818,-0.4838,-0.4826,-0.4843,-0.4838,-0.4863,-0.486,-0.4955,-0.4964,-0.4872,-0.4873,-0.4874,0,-0.5023,-0.5035,-0.5008,-0.5008,-0.4998,-0.4999,-0.4996,-0.4962,-0.496,-0.4942,-0.495,-0.4946,-0.494,-0.494,-0.4914,-0.4908,-0.4893,-0.4927,-0.4891,-0.4899,-0.4889,-0.4887,-0.4887,-0.4933,-0.4934,-0.4935,-0.4936,0,-0.5107,-0.5092,-0.5089,-0.5081,-0.5078,-0.507,-0.506,-0.5063,-0.5025,-0.5025,-0.5022,-0.5018,-0.501,-0.5005,-0.4994,-0.4981,-0.4951,-0.4948,-0.4952,-0.4959,-0.4967,-0.496,-0.486,-0.4945,-0.4944,-0.4943,-0.4943,-0.4942,-0.5171,-0.5178,-0.516,-0.5158,-0.5146,-0.5138,-0.5142,-0.5122,-0.512,-0.511,-0.509,-0.5091,-0.5073,-0.5055,-0.5045,-0.5044,-0.5027,-0.5034,-0.5036,-0.5037,-0.5041,-0.4971,-0.5043,-0.5042,-0.5042,-0.5042,-0.5042,0,-0.5249,-0.5235,-0.5234,-0.522,-0.5218,-0.5192,-0.518,-0.5179,-0.518,-0.5167,-0.5162,-0.5159,-0.5154,-0.5129,-0.5121,-0.5125,-0.5111,-0.5124,-0.5121,-0.5118,-0.5058,-0.5053,-0.5135,-0.5135,-0.5135,-0.5135,-0.5135,-0.5135,-0.5289,-0.53,-0.5284,-0.5289,-0.5275,-0.5275,-0.5269,-0.5261,-0.5249,-0.5248,-0.5243,-0.5228,-0.5209,-0.52,-0.5194,-0.5186,-0.5184,-0.52,-0.5188,-0.5132,-0.5123,-0.5114,-0.5109,-0.5201,-0.5201,-0.5248,-0.5248,-0.5248]},{"header":{"parameterUnit":"m.s-1","parameterCategory":1,"la1":30.2991,"la2":30.254,"lo1":-89.0895,"lo2":-89.0444,"dy":0.0017,"dx":0.0017,"nx":28,"ny":28,"refTime":"2026-02-18T03:00:00:Z","depth":0,"parameterNumber":3,"parameterNumberName":"V-component_of_WINDS"},"data":[0,0,0,0,0,0,0,0,0,0,0,0,0,0,0,0,0,0,0,0,0,0,0,0,0,0,0,0,0,0,0,0,0,0,0,0,0,0,0,0,0,0,0,0,0,0,0,0,0,0,0,0,0,0,0,0,0,0,3.2239,3.224,0,3.2337,3.2338,3.2339,3.2396,3.2396,3.2397,3.2397,3.2497,3.2499,3.2502,0,0,0,0,0,0,0,0,0,0,0,0,0,3.2104,3.2106,3.2239,3.224,3.2241,3.2337,3.2338,3.2339,3.2396,3.2396,3.2397,3.2397,3.2496,3.2499,3.2502,0,0,0,0,0,0,0,0,0,0,0,0,0,3.2178,3.2107,3.2239,3.2281,3.2286,3.2336,3.2338,3.234,3.2396,3.2396,3.2397,3.2397,3.2495,3.2499,3.2502,3.2518,0,0,3.2513,3.2515,0,0,0,0,0,0,0,0,3.2174,3.2183,3.2274,3.2278,3.2284,3.2355,3.2327,3.2399,3.2396,3.2354,3.2397,3.2397,3.2449,3.2457,3.2474,3.2522,3.2527,3.2514,3.2516,3.2517,3.2518,0,0,0,0,0,0,0,3.2168,3.2179,3.2278,3.2275,3.2281,3.2296,3.2307,3.2341,3.2398,3.2358,3.2362,3.2373,3.2452,3.247,3.2477,3.2528,3.2514,3.2517,3.2519,3.252,3.2599,3.2599,0,0,0,0,0,0,3.2156,3.2174,3.2274,3.228,3.2228,3.2298,3.2311,3.2332,3.2398,3.2409,3.2373,3.2375,3.2464,3.2473,3.2481,3.2507,3.2517,3.2521,3.2523,3.2599,3.2599,3.2599,0,0,0,0,0,0,3.2153,3.2165,3.227,3.2229,3.2243,3.23,3.2323,3.2333,3.2352,3.241,3.242,3.2381,3.2465,3.2476,3.2509,3.2511,3.2522,3.2526,3.2599,3.2599,3.2599,3.2556,0,0,0,0,0,0,3.2149,3.2163,3.2169,3.2228,3.2245,3.2296,3.2323,3.2335,3.2358,3.2363,3.242,3.243,3.2466,3.2503,3.2513,3.2516,3.2529,3.2599,3.2599,3.2599,3.2558,3.2554,3.2552,0,0,0,0,0,3.2144,3.2152,3.2169,3.218,3.2253,3.2296,3.2306,3.2347,3.2358,3.2365,3.2403,3.2428,3.2509,3.2506,3.2517,3.2522,3.2599,3.2599,3.2599,3.2559,3.2555,3.2552,0,0,0,0,0,0,3.209,3.216,3.218,3.2207,3.2245,3.2306,3.2315,3.2341,3.2377,3.238,3.2429,3.2442,3.2472,3.25,3.2496,3.2543,3.2557,3.2559,3.2523,3.252,3.2517,3.251,3.2532,0,0,0,0,0,3.2081,3.2109,3.217,3.2188,3.2206,3.2257,3.2278,3.2307,3.2348,3.2365,3.2405,3.2444,3.2479,3.2501,3.2536,3.2562,3.2577,3.2571,3.2568,3.2565,3.2566,3.2586,3.2585,3.2598,3.2598,3.2598,0,0,3.2063,3.2105,3.212,3.2178,3.2211,3.2241,3.2271,3.23,3.2323,3.2369,3.2404,3.2435,3.2483,3.2514,3.253,3.2538,3.2566,3.2565,3.2562,3.2565,3.2586,3.2585,3.2583,3.2598,3.2598,3.2598,0,0,3.2046,3.2079,3.21,3.2134,3.2184,3.2219,3.2224,3.2281,3.2304,3.234,3.2377,3.2405,3.2463,3.2497,3.2522,3.2522,3.2548,3.2532,3.2517,3.2536,3.2535,3.2534,3.2537,3.2537,3.2533,3.2533,3.2533,0,3.2017,3.2063,3.2107,3.2136,3.2162,3.2206,3.2229,3.2259,3.2318,3.2336,3.2345,3.2422,3.2456,3.2498,3.2499,3.2516,3.2525,3.2526,3.2531,3.2531,3.2531,3.2534,3.2535,3.2531,3.2531,3.2531,3.2531,0,3.2027,3.2058,3.2069,3.2127,3.2154,3.2179,3.2229,3.2251,3.2279,3.2313,3.2351,3.2395,3.2442,3.2454,3.2479,3.25,3.2504,3.2521,3.2537,3.2527,3.2531,3.2533,3.2528,3.2529,3.2529,3.253,0,0,3.1977,3.2062,3.2065,3.2093,3.2154,3.218,3.2208,3.2255,3.2274,3.2314,3.2341,3.2391,3.2409,3.2437,3.2467,3.2483,3.2485,3.2499,3.2501,3.2497,3.2514,3.2502,3.2502,3.2502,3.2503,3.2503,3.2511,0,3.1971,3.2024,3.2067,3.2105,3.2137,3.2181,3.2206,3.2247,3.2281,3.2313,3.235,3.2386,3.2405,3.2423,3.2441,3.2481,3.2489,3.2481,3.2529,3.2531,3.2517,3.2504,3.249,3.2495,3.2512,3.2512,3.2513,0,3.197,3.2011,3.2052,3.2113,3.2128,3.215,3.2198,3.2228,3.2276,3.23,3.2333,3.2365,3.24,3.2412,3.2461,3.2455,3.2478,3.2501,3.2502,3.2509,3.2522,3.2512,3.2497,3.2498,3.2515,3.2515,3.2515,0,3.1934,3.1998,3.2032,3.2055,3.2126,3.2141,3.2171,3.222,3.2246,3.2288,3.2306,3.2351,3.2376,3.2411,3.2456,3.246,3.2502,3.2517,3.2524,3.2523,3.2531,3.253,3.2521,3.2543,3.2543,3.2543,3.2543,0,3.1923,3.1948,3.2017,3.2038,3.2068,3.2117,3.2146,3.218,3.2223,3.2253,3.2294,3.2321,3.2378,3.2412,3.2447,3.2485,3.2495,3.2516,3.2526,3.2514,3.2511,3.253,3.2531,3.2543,3.2543,3.2543,3.2543,0,3.1887,3.1935,3.1975,3.204,3.2057,3.2077,3.2133,3.2156,3.2192,3.223,3.2242,3.2299,3.2343,3.2391,3.2449,3.2473,3.2509,3.2521,3.2493,3.2499,3.2504,3.2503,3.2507,3.2512,3.2528,3.2528,3.2528,0,3.1879,3.1899,3.1967,3.199,3.202,3.2056,3.2084,3.2134,3.2162,3.222,3.2237,3.2283,3.2323,3.2391,3.2438,3.2485,3.25,3.2498,3.2507,3.2495,3.2502,3.2501,3.2505,3.2495,3.2495,3.2495,3.2494,0,3.1859,3.1882,3.1921,3.1969,3.2001,3.2041,3.2082,3.2099,3.2158,3.2187,3.2232,3.2263,3.2325,3.2371,3.2424,3.2457,3.2486,3.2491,3.2496,3.2484,3.2468,3.2479,3.2488,3.2491,3.2491,3.2492,3.2492,3.2492,3.1839,3.186,3.1912,3.1954,3.1991,3.203,3.2056,3.2097,3.2135,3.219,3.2217,3.2263,3.2314,3.2388,3.242,3.2457,3.2466,3.2472,3.2474,3.2475,3.2473,3.2461,3.2466,3.2467,3.2467,3.2467,3.2467,0,3.1824,3.186,3.1898,3.1956,3.199,3.2015,3.2063,3.209,3.213,3.2175,3.2214,3.2268,3.2314,3.2366,3.2416,3.2436,3.2451,3.2448,3.2448,3.2455,3.246,3.2453,3.2435,3.2435,3.2435,3.2435,3.2435,3.2435,3.182,3.1858,3.1888,3.1946,3.1982,3.2028,3.2054,3.209,3.2127,3.2185,3.2224,3.2258,3.2307,3.2361,3.2405,3.2419,3.2437,3.243,3.2448,3.2452,3.2454,3.2457,3.245,3.2433,3.2433,3.244,3.244,3.244]}]]